www.pogodaiklimat.ru

Погода и климат >> Архив погоды >> Россия >> Ставропольский край >> Красногвардейское


ПОГОДА в Красногвардейском

  • Прогноз погоды в Красногвардейском
  • Монитор погоды в Красногвардейском

АРХИВ ПОГОДЫ в Красногвардейском

Время (UTC), дата Ветер
(напр.,м/с)
 
Видим.   Явления Облачность Т
(С)
Тd
(С)
f
(%)
Тe
(С)
Тes
(С)
Комфортность P
(гПа)
Po
(гПа)
Тmin
(С)
Tmax
(С)
R
(мм)
R24
(мм)
S
(см)
03 12.02 В 3 1000 м дымка 10/0 2000 м
[As op]
+1.1 +0.8 98 -4 -4 1021.3 1013.7 -0.2
06 12.02 В 4 20 км 10/8 1000 м
[Sc As trans]
+2.2 +0.6 89 -3 -3 1020.8 1013.2
09 12.02 В 4
{12}
20 км 4/0
[Ci sp]
+7.0 +0.8 65 +4 +7 1019.6 1012.2
12 12.02 В 5-10
{10}
20 км 10/0 2000 м
[Ac As Ci fib]
+9.5 +0.4 53 +7 +7 1017.9 1010.5
15 12.02 В 4
{10}
20 км 10/0 2000 м
[Ac As]
+4.4 -1.2 67 0 0 1019.0 1011.4 +9.8
18 12.02 В 2 20 км ясно +1.0 -3.0 75 -2 -2 1020.2 1012.6
21 12.02 В 3 20 км ясно -1.2 -4.1 81 -6 -6 1020.4 1012.7
00 13.02 В 3 20 км ясно -1.8 -4.0 85 -7 -7 1020.8 1013.1
03 13.02 В 2 20 км ясно -2.1 -3.7 89 -6 -6 1021.1 1013.4 -2.2
06 13.02 В 2 20 км 10/0
[Ci fib]
-0.0 -2.9 81 -4 -2 1022.2 1014.5
09 13.02 ЮВ 2 20 км 10/0
[Ci fib]
+8.6 -0.4 53 +7 +12 1021.8 1014.4
12 13.02 В 1 20 км 10/0
[Ci fib]
+13.6 -1.1 36 +14 +17 1020.9 1013.6
15 13.02 СВ 1 20 км 8/0
[Ci fib]
+8.6 -0.1 54 +8 +8 1021.5 1014.1 +14.1
18 13.02 штиль 0 20 км 4/0
[Ci fib]
+3.0 -1.4 73 +2 +2 1022.7 1015.1
21 13.02 З 1 20 км 10/0 2000 м
[Ac und]
+3.2 +0.6 83 +2 +2 1024.2 1016.6
00 14.02 З 1 20 км 10/0 2000 м
[Ac und]
+2.4 -0.2 83 +1 +1 1024.4 1016.8
03 14.02 СЗ 1 20 км 10/3 1000 м
[Sc Ac As]
+2.3 -0.5 82 +1 +1 1025.3 1017.7 +1.6
06 14.02 С 1 20 км 10/4 1000 м
[Sc Ac As]
+1.8 -1.6 78 0 +1 1026.3 1018.7 +1.6
09 14.02 СВ 2 20 км 10/8 600 м
[Sc Ac und]
+2.9 -2.9 66 0 +1 1026.6 1019.0
12 14.02 СВ 2 20 км 10/6 600 м
[Sc Ac As]
+4.9 -4.2 52 +3 +3 1025.1 1017.5
15 14.02 СВ 2 20 км 10/4 1000 м
[Sc Ac und]
+2.9 -4.7 57 0 0 1025.3 1017.7 +5.2
18 14.02 СВ 2 20 км 10/3 1000 м
[Sc Ac und]
+0.8 -6.5 58 -2 -2 1025.8 1018.2
21 14.02 СВ 2 20 км 10/10 1000 м
[Sc]
-0.3 -6.4 63 -4 -4 1026.0 1018.2
00 15.02 СВ 2 20 км 10/10 1000 м
[Sc]
-1.1 -5.3 73 -5 -5 1025.7 1017.9
03 15.02 СВ 2 20 км 10/10 1000 м
[Sc]
-1.3 -5.1 75 -5 -5 1026.2 1018.4 -1.3
06 15.02 СВ 3 20 км 10/8 600 м
[Sc Ac trans]
-1.7 -5.5 75 -6 -6 1027.5 1019.7 -1.9
09 15.02 В 2 20 км 9/0 2000 м
[Ac trans Ci fib]
+2.2 -4.8 60 -1 +3 1026.3 1018.7
12 15.02 В 2 20 км 4/0 2000 м
[Ac cast]
+4.9 -5.5 47 +3 +5 1025.0 1017.4
15 15.02 н/о -6.7 1025.0 1017.4 +5.1
18 15.02 штиль 0 20 км ясно -3.3 -8.0 70 -4 -4 1024.8 1017.0
21 15.02 штиль 0 20 км ясно -4.9 -7.8 80 -6 -6 1023.5 1015.6
00 16.02 штиль 0 20 км ясно -7.0 -9.2 84 -8 -8 1022.3 1014.4
03 16.02 З 1 20 км ясно -6.9 -9.0 85 -9 -9 1021.8 1013.9 -8.2
06 16.02 З 2 20 км 10/0 2000 м
[Ac cast Ci sp]
-2.6 -6.2 76 -6 -5 1021.0 1013.3
09 16.02 З 3 20 км 10/0 2000 м
[Ac und]
+1.2 -5.9 59 -3 -1 1020.3 1012.7
12 16.02 З 3 20 км 10/5 1000 м
[Sc Ac As]
+1.1 -2.6 76 -3 -3 1019.7 1012.1
15 16.02 З 2 20 км 10/10 1000 м
[Sc]
+1.0 -1.5 83 -2 -2 1020.1 1012.5 +2.2
18 16.02 З 1 20 км 10/10 1000 м
[Sc]
+1.3 -1.3 83 -1 -1 1020.8 1013.2
21 16.02 З 2 10 км 10/10 1000 м
[Sc]
+1.0 +0.4 96 -3 -3 1020.5 1012.9
00 17.02 З 2 4000 м дымка {дождь} 10/10 1000 м
[Sc]
+1.0 +0.7 98 -3 -3 1020.0 1012.4
03 17.02 З 1 4000 м дымка 10/10 1000 м
[Sc]
+0.4 -0.5 94 -2 -2 1020.1 1012.5 +0.4 0.5
06 17.02 З 2 4000 м дымка {снег} 10/10 1000 м
[Sc]
+0.8 -0.3 92 -3 -3 1020.1 1012.5 +0.3
09 17.02 З 4 4000 м дымка 10/10 1000 м
[Sc]
+3.3 +1.9 91 -1 -1 1018.4 1010.8
12 17.02 З 5-11
{13}
20 км 10/8 1000 м
[Sc Ac As]
+4.5 +1.3 80 -0 -0 1015.7 1008.1
15 17.02 З 5-11
{14}
20 км 10/10 1000 м
[Sc]
+6.5 +2.2 74 +2 +2 1013.1 1005.7 +6.5
18 17.02 З 7-13
{15}
20 км ясно +5.6 +1.6 75 +1 +1 1011.6 1004.2
21 17.02 З 6-13
{15}
20 км 10/10 1000 м
[Sc]
+7.0 +2.8 75 +3 +3 1010.2 1002.8
00 18.02 З 5-11
{17}
20 км 10/10 1000 м
[Sc]
+7.3 +2.8 73 +4 +4 1009.6 1002.2
03 18.02 З 5-16
{16}
20 км 10/10 1000 м
[Sc]
+5.9 +1.1 71 +2 +2 1008.8 1001.4 +5.6
06 18.02 СЗ 4-12
{16}
20 км 10/10 600 м
[Sc]
+4.0 -1.9 65 -0 -0 1011.5 1004.0 +4.0
09 18.02 З 4-11
{12}
20 км 8/6 600 м
[Cu med, cong Ci fib]
+5.7 -3.0 54 +2 +4 1012.7 1005.3
12 18.02 СЗ 4-10
{12}
20 км 8/5 600 м
[Cu med, cong Ci fib]
+5.9 -6.9 39 +3 +4 1012.7 1005.3
15 18.02 СЗ 2
{10}
20 км 8/4 600 м
[Sc Ci fib]
+3.1 -7.7 45 +1 +1 1015.2 1007.6 +7.0
18 18.02 З 1 20 км 4/4 1000 м
[Sc]
-1.4 -8.9 57 -3 -3 1018.6 1010.9
21 18.02 З 1 20 км 8/8 1000 м
[Sc]
-20.5 -8.0 100 -24 -24 1020.2 1012.5
00 19.02 СЗ 2 20 км 10/10 600 м
[Sc]
-1.2 -9.3 54 -4 -4 1021.5 1013.8

 

Местоположение метеостанции Красногвардейское (Ставропольский край, Россия): широта 45.83 долгота 41.48 высота над уровнем моря 60 м.

В архиве по умолчанию представлена погода в Красногвардейском за последнюю неделю. Архивные данные за месяц целиком и за предыдущие месяцы, начиная с января 2011 года, Вы можете получить, выбрав интересующий диапазон дат из раскрывающегося списка и нажав кнопку "Ввод!".


*Определитесь, кто Вы:
робот инопланетянин человек

Внимание! Время в таблицах - всемирное. Для получения местного времени необходимо прибавить поправку, которая равна 3 ч.

Смотрите также архив погоды в соседних городах и на ближайших метеорологических станциях:

Погода в Новоалександровске (Ставропольский край, Россия) (43 км)
Погода в Городовиковске (Калмыкия, Россия) (46 км)
Погода в Изобильном (Ставропольский край, Россия) (54 км)
Погода в Белой Глине (Краснодарский край, Россия) (54 км)
Погода в Гиганте (Ростовская область, Россия) (77 км)
Погода в Кропоткине (Краснодарский край, Россия) (84 км)
Погода в Ставрополе (Ставропольский край, Россия) (92 км)
Погода в Армавире (Краснодарский край, Россия) (99 км)
Погода в Тихорецке (Краснодарский край, Россия) (109 км)
Погода в Светлограде (Ставропольский край, Россия) (119 км)

Пояснения к столбцам:

Ветер - указаны скорость ветра в м/с - средняя за 10 мин, порывы в срок и между сроками (в фигурных скобках) и направление, откуда дует ветер: С - северный, СВ - северо-восточный, В - восточный, ЮВ - юго-восточный, Ю - южный, ЮЗ - юго-западный, З - западный, СЗ - северо-западный.
Видимость - горизонтальная дальность видимости в метрах или километрах. При видимости от 1 до 10 км при отсутствии осадков обычно наблюдается дымка, при ухудшении видимости до 1 км и менее - туман. В сухую погоду видимость может ухудшаться дымом, пылью или мглою.
Явления - указаны атмосферные явления, наблюдавшиеся в срок или в последний час перед сроком; фигурными скобками обозначены явления, наблюдавшиеся между сроками (за 1-3 часа до срока); квадратными скобками обозначены град или гололедные отложения с указанием их диаметра в мм.
Облачность - указаны через наклонную черту общая и нижняя облачность в баллах и высота нижней границы облаков в метрах; квадратными скобками обозначены формы облаков: Ci - перистые, Cs - перисто-слоистые, Cc - перисто-кучевые, Ac - высококучевые, As - высокослоистые, Sc - слоисто-кучевые, Ns - слоисто-дождевые, Cu - кучевые, Cb - кучево-дождевые. Подробнее классификацию облаков см. в Атласе облаков (PDF).
T - Температура воздуха - температура, измеренная на высоте 2 м над землей.
Td - Температура точки росы - температура, при понижении до которой содержащийся в воздухе водяной пар достигнет насыщения.
f - Относительная влажность воздуха - влажноcть воздуха, измеренная на высоте 2 м над землей.
Te - Эффективная температура - температура, которую ощущает одетый по сезону человек в тени. Характеристика душности погоды. При расчете учитывается влияние влажности воздуха и скорости ветра на теплоощущения человека.
Tes - Эффективная температура на солнце - температура, которую ощущает человек, с поправкой на солнечный нагрев. Характеристика знойности погоды. Зависит от высоты солнца над горизонтом, облачности и скорости ветра. Ночью, в пасмурную погоду, а также при ветре 12 м/с и более поправка равна нулю.
P - Атмосферное давление - приведенное к уровню моря атмосферное давление.
Po - Атмосферное давление - измеренное на уровне метеостанции атмосферное давление.
Tmin - Минимальная температура - минимум температуры воздуха на высоте 2 м над землей.
Tmax - Максимальная температура - максимум температуры воздуха на высоте 2 м над землей.
R - Количество осадков - Количество выпавших осадков за период времени, мм. При наведении курсора мыши на число - период времени, за который выпало указанное количество осадков.
R24 - Количество осадков - Количество выпавших осадков за 24 часа, мм.
S - Снежный покров - Высота снежного покрова, см. При наведении курсора мыши на число - состояние снежного покрова и степень покрытия местности в баллах.